contact:dominique.lefevre@mio.osupytheas.fr, maurice.libes@osupytheas.fr, didier.mallarino@osupytheas.fr
Project:EMSO http://www.emso-fr.org/EMSO-France
Depth: 2436.0 m
Title:EMSO Ligure Ouest : Data MII capteur CSTAR
DateTime,Latitude,Longitude,Instrument_Serial,Reference_Counts,Signal_Counts,Corrected_Signal_raw_counts,Calculated_Beam_c_inverse_meters,Internal_thermistor_counts
DateTime,Latitude,Longitude,Instrument_Serial,Reference_Counts,Signal_Counts,Corrected_Signal_raw_counts,Calculated_Beam_c_inverse_meters,Internal_thermistor_counts
2021-12-05T00:02:39,42.805,6.029,CST-1368DR,5043,6521,13826,0.487,551
2021-12-05T00:05:41,42.805,6.029,CST-1368DR,5043,6520,13823,0.488,551
2021-12-05T00:08:42,42.805,6.029,CST-1368DR,5043,6521,13825,0.487,551
2021-12-05T00:11:44,42.805,6.029,CST-1368DR,5043,6520,13824,0.488,551
2021-12-05T00:14:45,42.805,6.029,CST-1368DR,5043,6521,13825,0.487,551
2021-12-05T00:17:47,42.805,6.029,CST-1368DR,5043,6520,13824,0.488,551
2021-12-05T00:20:49,42.805,6.029,CST-1368DR,5043,6521,13826,0.487,551
2021-12-05T00:23:50,42.805,6.029,CST-1368DR,5043,6521,13825,0.487,551
2021-12-05T00:26:52,42.805,6.029,CST-1368DR,5043,6521,13825,0.487,551
2021-12-05T00:29:53,42.805,6.029,CST-1368DR,5043,6520,13824,0.488,551
2021-12-05T00:32:55,42.805,6.029,CST-1368DR,5043,6518,13819,0.489,551
2021-12-05T00:35:56,42.805,6.029,CST-1368DR,5043,6520,13823,0.488,551
2021-12-05T00:38:58,42.805,6.029,CST-1368DR,5043,6517,13817,0.490,551
2021-12-05T00:42:00,42.805,6.029,CST-1368DR,5043,6520,13823,0.488,551
2021-12-05T00:45:01,42.805,6.029,CST-1368DR,5043,6521,13825,0.487,551
2021-12-05T00:48:03,42.805,6.029,CST-1368DR,5043,6520,13823,0.488,551
2021-12-05T00:51:04,42.805,6.029,CST-1368DR,5043,6518,13819,0.489,551
2021-12-05T00:54:06,42.805,6.029,CST-1368DR,5043,6519,13822,0.488,551
2021-12-05T00:57:08,42.805,6.029,CST-1368DR,5043,6520,13824,0.488,551
2021-12-05T01:00:09,42.805,6.029,CST-1368DR,5043,6519,13821,0.488,551
2021-12-05T01:03:11,42.805,6.029,CST-1368DR,5043,6520,13823,0.488,551
2021-12-05T01:06:12,42.805,6.029,CST-1368DR,5043,6521,13825,0.487,551
2021-12-05T01:09:14,42.805,6.029,CST-1368DR,5043,6520,13824,0.488,551
2021-12-05T01:12:15,42.805,6.029,CST-1368DR,5043,6521,13825,0.487,551
2021-12-05T01:15:17,42.805,6.029,CST-1368DR,5043,6520,13824,0.488,551
2021-12-05T01:18:19,42.805,6.029,CST-1368DR,5043,6520,13824,0.488,551
2021-12-05T01:21:20,42.805,6.029,CST-1368DR,5043,6519,13821,0.488,551
2021-12-05T01:24:22,42.805,6.029,CST-1368DR,5043,6518,13820,0.489,551
2021-12-05T01:27:23,42.805,6.029,CST-1368DR,5043,6519,13821,0.488,551
2021-12-05T01:30:25,42.805,6.029,CST-1368DR,5043,6519,13821,0.488,551
2021-12-05T01:33:27,42.805,6.029,CST-1368DR,5043,6519,13821,0.488,551
2021-12-05T01:36:28,42.805,6.029,CST-1368DR,5043,6520,13824,0.488,551
2021-12-05T01:39:30,42.805,6.029,CST-1368DR,5043,6519,13821,0.488,551
2021-12-05T01:42:31,42.805,6.029,CST-1368DR,5043,6519,13820,0.489,551
2021-12-05T01:45:33,42.805,6.029,CST-1368DR,5043,6519,13821,0.488,551
2021-12-05T01:48:34,42.805,6.029,CST-1368DR,5043,6519,13822,0.488,551
2021-12-05T01:51:36,42.805,6.029,CST-1368DR,5043,6520,13823,0.488,551
2021-12-05T01:54:38,42.805,6.029,CST-1368DR,5043,6520,13823,0.488,551
2021-12-05T01:57:39,42.805,6.029,CST-1368DR,5043,6518,13818,0.489,551
2021-12-05T02:00:41,42.805,6.029,CST-1368DR,5043,6519,13822,0.488,551
2021-12-05T02:03:42,42.805,6.029,CST-1368DR,5043,6521,13825,0.487,551
2021-12-05T02:06:44,42.805,6.029,CST-1368DR,5043,6520,13824,0.488,551
2021-12-05T02:09:45,42.805,6.029,CST-1368DR,5043,6519,13822,0.488,551
2021-12-05T02:12:47,42.805,6.029,CST-1368DR,5043,6520,13824,0.488,551
2021-12-05T02:15:49,42.805,6.029,CST-1368DR,5043,6518,13819,0.489,551
2021-12-05T02:18:50,42.805,6.029,CST-1368DR,5043,6517,13817,0.490,551
2021-12-05T02:21:52,42.805,6.029,CST-1368DR,5043,6521,13825,0.487,551
2021-12-05T02:24:53,42.805,6.029,CST-1368DR,5043,6520,13824,0.488,550
2021-12-05T02:27:55,42.805,6.029,CST-1368DR,5043,6518,13820,0.489,551
2021-12-05T02:30:57,42.805,6.029,CST-1368DR,5043,6519,13821,0.488,551
2021-12-05T02:33:58,42.805,6.029,CST-1368DR,5043,6519,13821,0.488,551
2021-12-05T02:37:00,42.805,6.029,CST-1368DR,5043,6517,13818,0.489,551
2021-12-05T02:40:01,42.805,6.029,CST-1368DR,5043,6518,13819,0.489,551
2021-12-05T02:43:03,42.805,6.029,CST-1368DR,5043,6516,13816,0.490,551
2021-12-05T02:46:04,42.805,6.029,CST-1368DR,5043,6518,13818,0.489,551
2021-12-05T02:49:06,42.805,6.029,CST-1368DR,5043,6519,13821,0.488,551
2021-12-05T02:52:08,42.805,6.029,CST-1368DR,5043,6515,13814,0.490,551
2021-12-05T02:55:09,42.805,6.029,CST-1368DR,5043,6516,13816,0.490,551
2021-12-05T02:58:11,42.805,6.029,CST-1368DR,5043,6518,13819,0.489,551
2021-12-05T03:01:12,42.805,6.029,CST-1368DR,5043,6515,13812,0.491,551
2021-12-05T03:04:14,42.805,6.029,CST-1368DR,5043,6517,13818,0.489,551
2021-12-05T03:07:16,42.805,6.029,CST-1368DR,5043,6516,13816,0.490,551
2021-12-05T03:10:17,42.805,6.029,CST-1368DR,5043,6517,13818,0.489,551
2021-12-05T03:13:19,42.805,6.029,CST-1368DR,5043,6517,13818,0.489,551
2021-12-05T03:16:20,42.805,6.029,CST-1368DR,5043,6516,13815,0.490,551
2021-12-05T03:19:22,42.805,6.029,CST-1368DR,5043,6513,13809,0.492,551
2021-12-05T03:22:23,42.805,6.029,CST-1368DR,5043,6516,13814,0.490,551
2021-12-05T03:25:25,42.805,6.029,CST-1368DR,5043,6514,13811,0.491,551
2021-12-05T03:28:27,42.805,6.029,CST-1368DR,5043,6515,13813,0.491,551
2021-12-05T03:31:28,42.805,6.029,CST-1368DR,5043,6521,13825,0.487,551
2021-12-05T03:34:30,42.805,6.029,CST-1368DR,5043,6520,13823,0.488,551
2021-12-05T03:37:31,42.805,6.029,CST-1368DR,5043,6518,13818,0.489,551
2021-12-05T03:40:33,42.805,6.029,CST-1368DR,5043,6518,13818,0.489,551
2021-12-05T03:43:34,42.805,6.029,CST-1368DR,5043,6518,13818,0.489,551
2021-12-05T03:46:36,42.805,6.029,CST-1368DR,5043,6518,13819,0.489,551
2021-12-05T03:49:38,42.805,6.029,CST-1368DR,5043,6516,13816,0.490,551
2021-12-05T03:52:39,42.805,6.029,CST-1368DR,5043,6516,13816,0.490,551
2021-12-05T03:55:41,42.805,6.029,CST-1368DR,5043,6517,13818,0.489,551
2021-12-05T03:58:42,42.805,6.029,CST-1368DR,5043,6514,13811,0.491,551
2021-12-05T04:01:44,42.805,6.029,CST-1368DR,5043,6515,13812,0.491,551
2021-12-05T04:04:46,42.805,6.029,CST-1368DR,5043,6514,13811,0.491,551
2021-12-05T04:07:47,42.805,6.029,CST-1368DR,5043,6516,13815,0.490,551
2021-12-05T04:10:49,42.805,6.029,CST-1368DR,5043,6515,13812,0.491,551
2021-12-05T04:13:50,42.805,6.029,CST-1368DR,5043,6518,13819,0.489,551
2021-12-05T04:16:52,42.805,6.029,CST-1368DR,5043,6512,13807,0.492,551
2021-12-05T04:19:53,42.805,6.029,CST-1368DR,5043,6517,13817,0.490,551
2021-12-05T04:22:55,42.805,6.029,CST-1368DR,5043,6517,13818,0.489,551
2021-12-05T04:25:57,42.805,6.029,CST-1368DR,5043,6513,13808,0.492,551
2021-12-05T04:28:58,42.805,6.029,CST-1368DR,5043,6515,13814,0.490,551
2021-12-05T04:32:00,42.805,6.029,CST-1368DR,5043,6517,13817,0.490,551
2021-12-05T04:35:01,42.805,6.029,CST-1368DR,5043,6521,13826,0.487,551
2021-12-05T04:38:03,42.805,6.029,CST-1368DR,5043,6516,13815,0.490,551
2021-12-05T04:41:05,42.805,6.029,CST-1368DR,5043,6518,13819,0.489,551
2021-12-05T04:44:06,42.805,6.029,CST-1368DR,5043,6517,13817,0.490,551
2021-12-05T04:47:08,42.805,6.029,CST-1368DR,5043,6515,13814,0.490,551
2021-12-05T04:50:09,42.805,6.029,CST-1368DR,5043,6517,13817,0.490,551
2021-12-05T04:53:11,42.805,6.029,CST-1368DR,5043,6516,13815,0.490,551
2021-12-05T04:56:12,42.805,6.029,CST-1368DR,5043,6517,13817,0.490,551
2021-12-05T04:59:14,42.805,6.029,CST-1368DR,5043,6515,13813,0.491,551
2021-12-05T05:02:16,42.805,6.029,CST-1368DR,5043,6515,13814,0.490,551
2021-12-05T05:05:17,42.805,6.029,CST-1368DR,5043,6517,13817,0.490,551
2021-12-05T05:08:19,42.805,6.029,CST-1368DR,5043,6518,13819,0.489,551
2021-12-05T05:11:20,42.805,6.029,CST-1368DR,5043,6520,13823,0.488,551
2021-12-05T05:14:22,42.805,6.029,CST-1368DR,5043,6516,13814,0.490,551
2021-12-05T05:17:23,42.805,6.029,CST-1368DR,5043,6517,13817,0.490,551
2021-12-05T05:20:25,42.805,6.029,CST-1368DR,5043,6514,13811,0.491,551
2021-12-05T05:23:27,42.805,6.029,CST-1368DR,5043,6514,13811,0.491,551
2021-12-05T05:26:28,42.805,6.029,CST-1368DR,5043,6515,13812,0.491,551
2021-12-05T05:29:30,42.805,6.029,CST-1368DR,5043,6515,13812,0.491,551
2021-12-05T05:32:31,42.805,6.029,CST-1368DR,5043,6516,13816,0.490,551
2021-12-05T05:35:33,42.805,6.029,CST-1368DR,5043,6516,13816,0.490,551
2021-12-05T05:38:35,42.805,6.029,CST-1368DR,5043,6515,13812,0.491,551
2021-12-05T05:41:36,42.805,6.029,CST-1368DR,5043,6514,13811,0.491,551
2021-12-05T05:44:38,42.805,6.029,CST-1368DR,5043,6514,13811,0.491,551
2021-12-05T05:47:39,42.805,6.029,CST-1368DR,5043,6515,13812,0.491,551
2021-12-05T05:50:41,42.805,6.029,CST-1368DR,5043,6517,13817,0.490,551
2021-12-05T05:53:42,42.805,6.029,CST-1368DR,5043,6514,13811,0.491,551
2021-12-05T05:56:44,42.805,6.029,CST-1368DR,5043,6513,13808,0.492,551
2021-12-05T05:59:46,42.805,6.029,CST-1368DR,5043,6515,13813,0.491,551
2021-12-05T06:02:47,42.805,6.029,CST-1368DR,5043,6517,13817,0.490,551
2021-12-05T06:05:49,42.805,6.029,CST-1368DR,5043,6516,13815,0.490,551
2021-12-05T06:08:50,42.805,6.029,CST-1368DR,5043,6515,13813,0.491,551
2021-12-05T06:11:52,42.805,6.029,CST-1368DR,5043,6515,13813,0.491,551
2021-12-05T06:14:53,42.805,6.029,CST-1368DR,5043,6515,13812,0.491,551
2021-12-05T06:17:55,42.805,6.029,CST-1368DR,5043,6514,13810,0.492,551
2021-12-05T06:20:57,42.805,6.029,CST-1368DR,5043,6515,13813,0.491,551
2021-12-05T06:23:58,42.805,6.029,CST-1368DR,5043,6515,13813,0.491,551
2021-12-05T06:27:00,42.805,6.029,CST-1368DR,5043,6516,13815,0.490,551
2021-12-05T06:30:01,42.805,6.029,CST-1368DR,5043,6514,13811,0.491,551
2021-12-05T06:33:03,42.805,6.029,CST-1368DR,5043,6515,13812,0.491,551
2021-12-05T06:36:05,42.805,6.029,CST-1368DR,5043,6516,13815,0.490,551
2021-12-05T06:39:06,42.805,6.029,CST-1368DR,5043,6516,13814,0.490,551
2021-12-05T06:42:08,42.805,6.029,CST-1368DR,5043,6515,13813,0.491,551
2021-12-05T06:45:09,42.805,6.029,CST-1368DR,5043,6514,13810,0.492,551
2021-12-05T06:48:11,42.805,6.029,CST-1368DR,5043,6515,13812,0.491,551
2021-12-05T06:51:12,42.805,6.029,CST-1368DR,5043,6515,13812,0.491,551
2021-12-05T06:54:14,42.805,6.029,CST-1368DR,5043,6516,13815,0.490,551
2021-12-05T06:57:16,42.805,6.029,CST-1368DR,5043,6516,13814,0.490,551
2021-12-05T07:00:17,42.805,6.029,CST-1368DR,5043,6515,13813,0.491,551
2021-12-05T07:03:19,42.805,6.029,CST-1368DR,5043,6517,13817,0.490,551
2021-12-05T07:06:20,42.805,6.029,CST-1368DR,5043,6516,13815,0.490,551
2021-12-05T07:09:22,42.805,6.029,CST-1368DR,5043,6514,13811,0.491,551
2021-12-05T07:12:24,42.805,6.029,CST-1368DR,5043,6515,13812,0.491,551
2021-12-05T07:15:25,42.805,6.029,CST-1368DR,5043,6514,13810,0.492,551
2021-12-05T07:18:27,42.805,6.029,CST-1368DR,5043,6513,13809,0.492,551
2021-12-05T07:21:28,42.805,6.029,CST-1368DR,5043,6514,13811,0.491,551
2021-12-05T07:24:30,42.805,6.029,CST-1368DR,5043,6518,13818,0.489,551
2021-12-05T07:27:31,42.805,6.029,CST-1368DR,5043,6515,13814,0.490,551
2021-12-05T07:30:33,42.805,6.029,CST-1368DR,5043,6515,13812,0.491,551
2021-12-05T07:33:35,42.805,6.029,CST-1368DR,5043,6514,13811,0.491,551
2021-12-05T07:36:36,42.805,6.029,CST-1368DR,5043,6515,13813,0.491,551
2021-12-05T07:39:38,42.805,6.029,CST-1368DR,5043,6513,13808,0.492,551
2021-12-05T07:42:39,42.805,6.029,CST-1368DR,5043,6514,13811,0.491,551
2021-12-05T07:45:41,42.805,6.029,CST-1368DR,5043,6512,13807,0.492,551
2021-12-05T07:48:43,42.805,6.029,CST-1368DR,5043,6514,13811,0.491,551
2021-12-05T07:51:44,42.805,6.029,CST-1368DR,5043,6513,13808,0.492,551
2021-12-05T07:54:46,42.805,6.029,CST-1368DR,5043,6514,13811,0.491,551
2021-12-05T07:57:47,42.805,6.029,CST-1368DR,5043,6511,13804,0.493,551
2021-12-05T08:00:49,42.805,6.029,CST-1368DR,5043,6514,13810,0.492,551
2021-12-05T08:03:50,42.805,6.029,CST-1368DR,5043,6515,13813,0.491,551
2021-12-05T08:06:52,42.805,6.029,CST-1368DR,5043,6516,13815,0.490,551
2021-12-05T08:09:54,42.805,6.029,CST-1368DR,5043,6515,13814,0.490,551
2021-12-05T08:12:55,42.805,6.029,CST-1368DR,5043,6513,13809,0.492,551
2021-12-05T08:15:57,42.805,6.029,CST-1368DR,5043,6514,13811,0.491,551
2021-12-05T08:18:58,42.805,6.029,CST-1368DR,5043,6513,13808,0.492,551
2021-12-05T08:22:00,42.805,6.029,CST-1368DR,5043,6511,13803,0.494,551
2021-12-05T08:25:02,42.805,6.029,CST-1368DR,5043,6513,13808,0.492,551
2021-12-05T08:28:03,42.805,6.029,CST-1368DR,5043,6514,13811,0.491,551
2021-12-05T08:31:05,42.805,6.029,CST-1368DR,5043,6514,13811,0.491,551
2021-12-05T08:34:06,42.805,6.029,CST-1368DR,5043,6515,13812,0.491,551
2021-12-05T08:37:08,42.805,6.029,CST-1368DR,5043,6514,13810,0.492,551
2021-12-05T08:40:09,42.805,6.029,CST-1368DR,5043,6515,13812,0.491,551
2021-12-05T08:43:11,42.805,6.029,CST-1368DR,5043,6514,13810,0.492,551
2021-12-05T08:46:13,42.805,6.029,CST-1368DR,5043,6514,13811,0.491,551
2021-12-05T08:49:14,42.805,6.029,CST-1368DR,5043,6514,13811,0.491,551
2021-12-05T08:52:16,42.805,6.029,CST-1368DR,5043,6514,13810,0.492,551
2021-12-05T08:55:17,42.805,6.029,CST-1368DR,5043,6514,13810,0.492,551
2021-12-05T08:58:19,42.805,6.029,CST-1368DR,5043,6514,13811,0.491,550
2021-12-05T09:01:20,42.805,6.029,CST-1368DR,5043,6513,13808,0.492,551
2021-12-05T09:04:22,42.805,6.029,CST-1368DR,5043,6513,13808,0.492,551
2021-12-05T09:07:24,42.805,6.029,CST-1368DR,5043,6512,13807,0.492,551
2021-12-05T09:10:25,42.805,6.029,CST-1368DR,5043,6516,13814,0.490,551
2021-12-05T09:13:27,42.805,6.029,CST-1368DR,5043,6515,13812,0.491,551
2021-12-05T09:16:28,42.805,6.029,CST-1368DR,5043,6515,13812,0.491,551
2021-12-05T09:19:30,42.805,6.029,CST-1368DR,5043,6516,13816,0.490,551
2021-12-05T09:22:32,42.805,6.029,CST-1368DR,5043,6515,13814,0.490,551
2021-12-05T09:25:33,42.805,6.029,CST-1368DR,5043,6516,13814,0.490,550
2021-12-05T09:28:35,42.805,6.029,CST-1368DR,5043,6514,13810,0.492,551
2021-12-05T09:31:36,42.805,6.029,CST-1368DR,5043,6513,13808,0.492,551
2021-12-05T09:34:38,42.805,6.029,CST-1368DR,5042,6515,13815,0.490,551
2021-12-05T09:37:39,42.805,6.029,CST-1368DR,5043,6514,13810,0.492,551
2021-12-05T09:40:41,42.805,6.029,CST-1368DR,5043,6516,13815,0.490,551
2021-12-05T09:43:43,42.805,6.029,CST-1368DR,5043,6513,13808,0.492,551
2021-12-05T09:46:44,42.805,6.029,CST-1368DR,5042,6513,13812,0.491,551
2021-12-05T09:49:46,42.805,6.029,CST-1368DR,5043,6514,13811,0.491,551
2021-12-05T09:52:47,42.805,6.029,CST-1368DR,5042,6515,13815,0.490,551
2021-12-05T09:55:49,42.805,6.029,CST-1368DR,5042,6515,13816,0.490,551
2021-12-05T09:58:51,42.805,6.029,CST-1368DR,5042,6514,13813,0.491,551
2021-12-05T10:01:52,42.805,6.029,CST-1368DR,5042,6513,13812,0.491,551
2021-12-05T10:04:54,42.805,6.029,CST-1368DR,5042,6515,13815,0.490,551
2021-12-05T10:07:55,42.805,6.029,CST-1368DR,5042,6512,13809,0.492,551
2021-12-05T10:10:57,42.805,6.029,CST-1368DR,5042,6514,13813,0.491,551
2021-12-05T10:13:58,42.805,6.029,CST-1368DR,5042,6515,13816,0.490,551
2021-12-05T10:17:00,42.805,6.029,CST-1368DR,5042,6513,13810,0.492,551
2021-12-05T10:20:02,42.805,6.029,CST-1368DR,5042,6514,13814,0.490,551
2021-12-05T10:23:03,42.805,6.029,CST-1368DR,5042,6514,13814,0.490,551
2021-12-05T10:26:05,42.805,6.029,CST-1368DR,5042,6515,13816,0.490,551
2021-12-05T10:29:06,42.805,6.029,CST-1368DR,5042,6513,13812,0.491,551
2021-12-05T10:32:08,42.805,6.029,CST-1368DR,5042,6515,13816,0.490,551
2021-12-05T10:35:09,42.805,6.029,CST-1368DR,5042,6515,13815,0.490,551
2021-12-05T10:38:11,42.805,6.029,CST-1368DR,5042,6514,13813,0.491,551
2021-12-05T10:41:13,42.805,6.029,CST-1368DR,5042,6513,13812,0.491,551
2021-12-05T10:44:14,42.805,6.029,CST-1368DR,5043,6514,13810,0.492,551
2021-12-05T10:47:16,42.805,6.029,CST-1368DR,5042,6513,13811,0.491,551
2021-12-05T10:50:17,42.805,6.029,CST-1368DR,5042,6516,13817,0.490,551
2021-12-05T10:53:19,42.805,6.029,CST-1368DR,5042,6512,13809,0.492,551
2021-12-05T10:56:21,42.805,6.029,CST-1368DR,5042,6515,13815,0.490,551
2021-12-05T10:59:22,42.805,6.029,CST-1368DR,5042,6516,13817,0.490,551
2021-12-05T11:02:24,42.805,6.029,CST-1368DR,5042,6515,13816,0.490,551
2021-12-05T11:05:25,42.805,6.029,CST-1368DR,5042,6518,13821,0.488,551
2021-12-05T11:08:27,42.805,6.029,CST-1368DR,5042,6514,13813,0.491,551
2021-12-05T11:11:28,42.805,6.029,CST-1368DR,5042,6514,13813,0.491,551
2021-12-05T11:14:30,42.805,6.029,CST-1368DR,5042,6512,13809,0.492,551
2021-12-05T11:17:32,42.805,6.029,CST-1368DR,5042,6515,13815,0.490,551
2021-12-05T11:20:33,42.805,6.029,CST-1368DR,5042,6513,13811,0.491,551
2021-12-05T11:23:35,42.805,6.029,CST-1368DR,5042,6514,13812,0.491,551
2021-12-05T11:26:36,42.805,6.029,CST-1368DR,5043,6514,13810,0.492,551
2021-12-05T11:29:38,42.805,6.029,CST-1368DR,5042,6515,13816,0.490,551
2021-12-05T11:32:40,42.805,6.029,CST-1368DR,5043,6512,13807,0.492,551
2021-12-05T11:35:41,42.805,6.029,CST-1368DR,5042,6515,13815,0.490,551
2021-12-05T11:38:43,42.805,6.029,CST-1368DR,5043,6515,13814,0.490,551
2021-12-05T11:41:44,42.805,6.029,CST-1368DR,5042,6513,13810,0.492,551
2021-12-05T11:44:46,42.805,6.029,CST-1368DR,5042,6513,13810,0.492,551
2021-12-05T11:47:47,42.805,6.029,CST-1368DR,5042,6515,13815,0.490,551
2021-12-05T11:50:49,42.805,6.029,CST-1368DR,5042,6514,13814,0.490,551
2021-12-05T11:53:51,42.805,6.029,CST-1368DR,5042,6516,13818,0.489,551
2021-12-05T11:56:52,42.805,6.029,CST-1368DR,5042,6515,13816,0.490,551
2021-12-05T11:59:54,42.805,6.029,CST-1368DR,5042,6512,13808,0.492,551
2021-12-05T12:02:55,42.805,6.029,CST-1368DR,5042,6512,13809,0.492,551
2021-12-05T12:05:57,42.805,6.029,CST-1368DR,5042,6514,13812,0.491,551
2021-12-05T12:08:58,42.805,6.029,CST-1368DR,5042,6515,13816,0.490,551
2021-12-05T12:12:00,42.805,6.029,CST-1368DR,5042,6515,13816,0.490,551
2021-12-05T12:15:02,42.805,6.029,CST-1368DR,5042,6514,13814,0.490,551
2021-12-05T12:18:03,42.805,6.029,CST-1368DR,5042,6513,13812,0.491,551
2021-12-05T12:21:05,42.805,6.029,CST-1368DR,5042,6516,13817,0.490,551
2021-12-05T12:24:06,42.805,6.029,CST-1368DR,5042,6516,13817,0.490,551
2021-12-05T12:27:08,42.805,6.029,CST-1368DR,5042,6517,13819,0.489,551
2021-12-05T12:30:10,42.805,6.029,CST-1368DR,5042,6515,13815,0.490,551
2021-12-05T12:33:11,42.805,6.029,CST-1368DR,5042,6518,13821,0.488,551
2021-12-05T12:36:13,42.805,6.029,CST-1368DR,5042,6516,13818,0.489,551
2021-12-05T12:39:14,42.805,6.029,CST-1368DR,5042,6515,13815,0.490,551
2021-12-05T12:42:16,42.805,6.029,CST-1368DR,5042,6514,13813,0.491,551
2021-12-05T12:45:17,42.805,6.029,CST-1368DR,5042,6513,13812,0.491,551
2021-12-05T12:48:19,42.805,6.029,CST-1368DR,5042,6515,13815,0.490,551
2021-12-05T12:51:21,42.805,6.029,CST-1368DR,5042,6513,13810,0.492,551
2021-12-05T12:54:22,42.805,6.029,CST-1368DR,5042,6514,13813,0.491,551
2021-12-05T12:57:24,42.805,6.029,CST-1368DR,5042,6516,13817,0.490,551
2021-12-05T13:00:25,42.805,6.029,CST-1368DR,5042,6515,13815,0.490,551
2021-12-05T13:03:27,42.805,6.029,CST-1368DR,5042,6514,13814,0.490,551
2021-12-05T13:06:29,42.805,6.029,CST-1368DR,5042,6515,13815,0.490,551
2021-12-05T13:09:30,42.805,6.029,CST-1368DR,5042,6515,13815,0.490,551
2021-12-05T13:12:32,42.805,6.029,CST-1368DR,5042,6516,13817,0.490,551
2021-12-05T13:15:33,42.805,6.029,CST-1368DR,5042,6514,13812,0.491,551
2021-12-05T13:18:35,42.805,6.029,CST-1368DR,5042,6517,13819,0.489,551
2021-12-05T13:21:36,42.805,6.029,CST-1368DR,5042,6516,13817,0.490,551
2021-12-05T13:24:38,42.805,6.029,CST-1368DR,5042,6514,13813,0.491,551
2021-12-05T13:27:40,42.805,6.029,CST-1368DR,5042,6512,13809,0.492,551
2021-12-05T13:30:41,42.805,6.029,CST-1368DR,5042,6513,13812,0.491,551
2021-12-05T13:33:43,42.805,6.029,CST-1368DR,5042,6515,13816,0.490,551
2021-12-05T13:36:44,42.805,6.029,CST-1368DR,5042,6515,13815,0.490,551
2021-12-05T13:39:46,42.805,6.029,CST-1368DR,5042,6515,13816,0.490,551
2021-12-05T13:42:47,42.805,6.029,CST-1368DR,5042,6514,13812,0.491,551
2021-12-05T13:45:49,42.805,6.029,CST-1368DR,5042,6516,13818,0.489,551
2021-12-05T13:48:51,42.805,6.029,CST-1368DR,5042,6515,13816,0.490,551
2021-12-05T13:51:52,42.805,6.029,CST-1368DR,5042,6516,13818,0.489,551
2021-12-05T13:54:54,42.805,6.029,CST-1368DR,5042,6518,13821,0.488,551
2021-12-05T13:57:55,42.805,6.029,CST-1368DR,5042,6516,13817,0.490,551
2021-12-05T14:00:57,42.805,6.029,CST-1368DR,5042,6515,13816,0.490,551
2021-12-05T14:03:59,42.805,6.029,CST-1368DR,5042,6518,13822,0.488,551
2021-12-05T14:07:00,42.805,6.029,CST-1368DR,5042,6514,13813,0.491,551
2021-12-05T14:10:02,42.805,6.029,CST-1368DR,5042,6515,13816,0.490,551
2021-12-05T14:13:03,42.805,6.029,CST-1368DR,5042,6517,13819,0.489,551
2021-12-05T14:16:05,42.805,6.029,CST-1368DR,5042,6513,13812,0.491,551
2021-12-05T14:19:06,42.805,6.029,CST-1368DR,5042,6514,13812,0.491,551
2021-12-05T14:22:08,42.805,6.029,CST-1368DR,5042,6514,13814,0.490,551
2021-12-05T14:25:10,42.805,6.029,CST-1368DR,5042,6515,13816,0.490,551
2021-12-05T14:28:11,42.805,6.029,CST-1368DR,5042,6516,13817,0.490,551
2021-12-05T14:31:13,42.805,6.029,CST-1368DR,5042,6515,13815,0.490,551
2021-12-05T14:34:14,42.805,6.029,CST-1368DR,5042,6516,13818,0.489,551
2021-12-05T14:37:16,42.805,6.029,CST-1368DR,5042,6513,13810,0.492,551
2021-12-05T14:40:17,42.805,6.029,CST-1368DR,5042,6516,13818,0.489,551
2021-12-05T14:43:19,42.805,6.029,CST-1368DR,5042,6516,13818,0.489,551
2021-12-05T14:46:21,42.805,6.029,CST-1368DR,5042,6515,13815,0.490,551
2021-12-05T14:49:22,42.805,6.029,CST-1368DR,5042,6515,13816,0.490,551
2021-12-05T14:52:24,42.805,6.029,CST-1368DR,5042,6517,13819,0.489,551
2021-12-05T14:55:25,42.805,6.029,CST-1368DR,5042,6514,13812,0.491,551
2021-12-05T14:58:27,42.805,6.029,CST-1368DR,5042,6517,13819,0.489,551
2021-12-05T15:01:29,42.805,6.029,CST-1368DR,5042,6516,13818,0.489,551
2021-12-05T15:04:30,42.805,6.029,CST-1368DR,5042,6515,13816,0.490,551
2021-12-05T15:07:32,42.805,6.029,CST-1368DR,5042,6514,13813,0.491,550
2021-12-05T15:10:33,42.805,6.029,CST-1368DR,5042,6514,13814,0.490,551
2021-12-05T15:13:35,42.805,6.029,CST-1368DR,5042,6516,13818,0.489,551
2021-12-05T15:16:36,42.805,6.029,CST-1368DR,5042,6517,13819,0.489,551
2021-12-05T15:19:38,42.805,6.029,CST-1368DR,5042,6517,13819,0.489,551
2021-12-05T15:22:40,42.805,6.029,CST-1368DR,5042,6516,13817,0.490,551
2021-12-05T15:25:41,42.805,6.029,CST-1368DR,5042,6512,13809,0.492,551
2021-12-05T15:28:43,42.805,6.029,CST-1368DR,5042,6515,13816,0.490,551
2021-12-05T15:31:44,42.805,6.029,CST-1368DR,5042,6514,13812,0.491,551
2021-12-05T15:34:46,42.805,6.029,CST-1368DR,5042,6515,13815,0.490,551
2021-12-05T15:37:48,42.805,6.029,CST-1368DR,5042,6514,13813,0.491,551
2021-12-05T15:40:49,42.805,6.029,CST-1368DR,5042,6515,13815,0.490,551
2021-12-05T15:43:51,42.805,6.029,CST-1368DR,5042,6514,13814,0.490,551
2021-12-05T15:46:52,42.805,6.029,CST-1368DR,5042,6515,13815,0.490,551
2021-12-05T15:49:54,42.805,6.029,CST-1368DR,5042,6515,13816,0.490,551
2021-12-05T15:52:55,42.805,6.029,CST-1368DR,5042,6516,13818,0.489,551
2021-12-05T15:55:57,42.805,6.029,CST-1368DR,5042,6511,13807,0.492,551
2021-12-05T15:58:59,42.805,6.029,CST-1368DR,5042,6516,13817,0.490,551
2021-12-05T16:02:00,42.805,6.029,CST-1368DR,5042,6516,13817,0.490,551
2021-12-05T16:05:02,42.805,6.029,CST-1368DR,5042,6515,13815,0.490,551
2021-12-05T16:08:03,42.805,6.029,CST-1368DR,5042,6512,13810,0.492,551
2021-12-05T16:11:05,42.805,6.029,CST-1368DR,5042,6516,13818,0.489,551
2021-12-05T16:14:06,42.805,6.029,CST-1368DR,5042,6515,13815,0.490,551
2021-12-05T16:17:08,42.805,6.029,CST-1368DR,5042,6517,13819,0.489,551
2021-12-05T16:20:10,42.805,6.029,CST-1368DR,5042,6514,13813,0.491,551
2021-12-05T16:23:11,42.805,6.029,CST-1368DR,5042,6514,13813,0.491,551
2021-12-05T16:26:13,42.805,6.029,CST-1368DR,5042,6513,13812,0.491,551
2021-12-05T16:29:14,42.805,6.029,CST-1368DR,5042,6514,13814,0.490,551
2021-12-05T16:32:16,42.805,6.029,CST-1368DR,5042,6515,13815,0.490,551
2021-12-05T16:35:18,42.805,6.029,CST-1368DR,5042,6514,13814,0.490,551
2021-12-05T16:38:19,42.805,6.029,CST-1368DR,5042,6514,13813,0.491,551
2021-12-05T16:41:21,42.805,6.029,CST-1368DR,5042,6514,13814,0.490,551
2021-12-05T16:44:22,42.805,6.029,CST-1368DR,5042,6515,13815,0.490,551
2021-12-05T16:47:24,42.805,6.029,CST-1368DR,5042,6515,13815,0.490,551
2021-12-05T16:50:25,42.805,6.029,CST-1368DR,5042,6514,13813,0.491,551
2021-12-05T16:53:27,42.805,6.029,CST-1368DR,5042,6514,13814,0.490,551